Location: Unspecified
(0.0000°N, 0.0000°E)
Time: 19:05:41
(UTC+01:00)

Amateur Radio Satellites - All Passes

Search period start: 28 November 2014 18:35
Search period end: 29 November 2014 18:35
Location: Unspecified, 0.0000°N, 0.0000°E

Satellite Date Start Highest point End Downlink Frequencies (MHz)
Time Altitude Azimuth
PCSat 28 Nov 18:37:51 18:43:14 84° 109° (ESE) 18:48:38 145.827
JAS-2 28 Nov 18:42:37 18:48:54 37° 258° (WSW) 18:55:45 435.910
CUTE-I 28 Nov 18:55:23 19:00:46 78° 77° (ENE) 19:06:07 437.470
AIST 2 28 Nov 19:00:45 19:04:30 35° 111° (ESE) 19:08:18 435.215
STRAND 1 28 Nov 19:23:28 19:28:30 68° 103° (ESE) 19:33:33 437.568
CUBESAT XI-V 28 Nov 19:27:21 19:31:57 85° 101° (ESE) 19:36:34 437.345
PRISM 28 Nov 19:30:56 19:34:06 21° 282° (WNW) 19:37:15 437.425
BEESAT 3 28 Nov 19:35:29 19:38:34 22° 292° (WNW) 19:41:41 437.485
JUGNU 28 Nov 19:37:54 19:43:39 60° 339° (NNW) 19:49:25 437.505
GONETS M04 28 Nov 19:45:52 19:53:29 34° 87° (E) 20:01:02
SRMSAT 28 Nov 19:52:57 19:58:51 69° 159° (SSE) 20:04:46 437.500
BEESAT 2 28 Nov 19:54:05 19:56:16 14° 292° (WNW) 19:58:28 435.950
Cubesat XI-IV 28 Nov 19:56:04 19:59:58 21° 257° (WSW) 20:03:53 437.490
AIST 1 28 Nov 20:22:04 20:25:59 33° 274° (W) 20:29:54
HO-68 28 Nov 20:31:01 20:35:59 20° 75° (ENE) 20:40:56 435.675
ISS 28 Nov 20:40:55 20:44:13 85° 305° (NW) 20:47:30 145.825
CUTE 1.7 + AOD 2 28 Nov 21:05:25 21:08:58 27° 79° (ENE) 21:12:30 437.475
BRITE-PL 28 Nov 21:19:12 21:24:28 50° 79° (E) 21:29:22 437.365/2234.400
DOVE 4 28 Nov 21:21:10 21:25:01 23° 80° (E) 21:28:41 437.250
JUGNU 28 Nov 21:28:19 21:32:53 23° 343° (NNW) 21:37:28 437.505
SEEDS 28 Nov 21:34:17 21:38:25 61° 78° (ENE) 21:42:32 437.485
CINEMA 3 28 Nov 21:37:11 21:40:23 19° 79° (E) 21:43:28 145.822/145.860
DELFI C3 28 Nov 21:38:31 21:40:40 14° 78° (ENE) 21:42:49 145.870
SRMSAT 28 Nov 21:42:29 21:48:05 43° 340° (NNW) 21:53:43 437.500
GONETS M04 28 Nov 21:42:35 21:49:53 31° 267° (W) 21:57:13
UKube-1 28 Nov 21:43:06 21:46:09 19° 78° (ENE) 21:49:11 .
AAUSAT CUBESAT 2 28 Nov 21:45:27 21:49:33 61° 79° (ENE) 21:53:38 437.432
Oscar 11 28 Nov 21:51:35 21:55:19 29° 78° (ENE) 21:59:03 145.826/435.025
COMPASS 1 28 Nov 22:02:43 22:06:50 60° 258° (WSW) 22:10:55 437.405
CANX-2 28 Nov 22:06:41 22:10:25 31° 258° (WSW) 22:14:08 2200.000
GOMX 1 28 Nov 22:14:49 22:19:50 48° 258° (WSW) 22:24:30 467.674
HO-68 28 Nov 22:16:38 22:23:21 44° 255° (WSW) 22:30:04 435.675
HUMSAT D 28 Nov 22:16:46 22:17:40 11° 79° (ENE) 22:18:33 437.325/437.525
DX 1 28 Nov 22:20:09 22:24:32 69° 78° (ENE) 22:28:53 434.975-435.025
UWE-3 28 Nov 22:23:03 22:27:04 35° 79° (E) 22:30:58 435.000/436.395/437.385
CUBEBUG 2 28 Nov 22:28:27 22:32:48 53° 79° (E) 22:36:59 437.445
TIGRISAT 28 Nov 22:33:27 22:36:42 19° 103° (ESE) 22:39:59 435.000
VERMONT LUNAR 28 Nov 22:37:04 22:40:40 84° 222° (SW) 22:44:16 437.305
PHONESAT 2.4 28 Nov 22:37:35 22:41:10 50° 43° (NE) 22:44:45 2401.200-2431.200
CUTE 1.7 + AOD 2 28 Nov 22:43:20 22:44:38 11° 258° (WSW) 22:45:56 437.475
UNISAT 6 28 Nov 22:47:53 22:51:57 31° 102° (ESE) 22:56:04 437.425
ZACube-1 28 Nov 22:51:23 22:55:44 78° 79° (ENE) 22:59:58 437.345
DOVE 4 28 Nov 22:59:03 23:02:29 19° 257° (WSW) 23:05:47 437.250
VELOX 1 28 Nov 23:02:26 23:06:51 58° 78° (ENE) 23:11:15 145.980
POLYITAN 1 28 Nov 23:02:37 23:06:15 28° 102° (ESE) 23:09:55 437.675
QB50P2 28 Nov 23:03:27 23:07:07 29° 102° (ESE) 23:10:48 145.880/145.840
DUCHIFAT 1 28 Nov 23:07:28 23:11:13 32° 102° (ESE) 23:15:00 145.980
ESTCUBE 1 28 Nov 23:12:10 23:15:41 22° 78° (ENE) 23:19:11 437.505/2401.250
DELFI C3 28 Nov 23:12:44 23:15:43 20° 258° (WSW) 23:18:41 145.870
CINEMA 3 28 Nov 23:13:56 23:17:20 20° 257° (WSW) 23:20:36 145.822/145.860
ANTELSAT 28 Nov 23:16:23 23:21:00 78° 102° (ESE) 23:25:44 437.575/2403.000
50 SAT 28 Nov 23:18:27 23:22:32 78° 78° (ENE) 23:26:33 437.505
UKube-1 28 Nov 23:19:04 23:22:03 18° 257° (WSW) 23:25:02 .
JUGNU 28 Nov 23:20:34 23:22:39 12° 351° (N) 23:24:44 437.505
FUNcube-1 28 Nov 23:26:02 23:29:55 32° 258° (WSW) 23:33:43 145.935
NANOSAT C BR1 28 Nov 23:26:56 23:31:07 65° 102° (ESE) 23:35:20 145.865
Oscar 11 28 Nov 23:30:16 23:31:13 11° 258° (WSW) 23:32:10 145.826/435.025
AISAT 28 Nov 23:30:30 23:34:54 53° 258° (WSW) 23:39:16 437.250
CUBEBUG 1 28 Nov 23:32:49 23:37:00 41° 78° (ENE) 23:41:10 437.445
BUGSAT 1 28 Nov 23:32:55 23:36:53 60° 102° (ESE) 23:40:52 437.445
SRMSAT 28 Nov 23:33:38 23:37:40 19° 345° (NNW) 23:41:43 437.500
QB50P1 28 Nov 23:37:12 23:41:25 87° 281° (W) 23:45:41 145.935-145.965
HUMSAT D 28 Nov 23:49:39 23:53:14 27° 258° (WSW) 23:56:47 437.325/437.525
DANDE 28 Nov 23:59:30 00:04:43 22° 90° (E) 00:10:40 436.750
POPSAT HIP 1 29 Nov 00:02:45 00:06:36 36° 282° (WNW) 00:10:31 437.405
TIGRISAT 29 Nov 00:09:44 00:13:10 21° 282° (WNW) 00:16:40 435.000
PHONESAT 2.4 29 Nov 00:18:58 00:19:52 11° 221° (SW) 00:20:46 2401.200-2431.200
TISAT 1 29 Nov 00:26:13 00:30:14 39° 78° (ENE) 00:34:13 437.305
UNISAT 6 29 Nov 00:26:26 00:28:29 13° 282° (WNW) 00:30:33 437.425
POLYITAN 1 29 Nov 00:40:44 00:41:57 11° 282° (WNW) 00:43:10 437.675
QB50P2 29 Nov 00:41:49 00:42:47 11° 282° (WNW) 00:43:45 145.880/145.840
SPROUT 29 Nov 00:44:56 00:49:14 63° 78° (ENE) 00:53:31 437.525
ESTCUBE 1 29 Nov 00:49:24 00:52:17 17° 258° (WSW) 00:55:10 437.505/2401.250
CUSAT 1 29 Nov 01:01:54 01:08:49 82° 265° (W) 01:17:13 437.405
SWISSCUBE 29 Nov 01:08:51 01:11:27 15° 77° (ENE) 01:14:02 437.505
Oscar 19 29 Nov 01:14:04 01:17:08 16° 103° (ESE) 01:20:13 437.125/150
SRMSAT 29 Nov 01:26:35 01:27:48 11° 355° (N) 01:29:01 437.500
MaSat-1 29 Nov 01:27:16 01:28:45 14° 75° (ENE) 01:30:18 437.345
SO-50 29 Nov 01:34:22 01:37:29 19° 112° (ESE) 01:40:37 436.795
BEESAT 29 Nov 01:37:34 01:41:49 32° 78° (ENE) 01:46:04 436.000
DANDE 29 Nov 01:41:12 01:47:39 44° 263° (W) 01:55:29 436.750
AUBIESAT-1 29 Nov 01:44:31 01:48:01 46° 74° (ENE) 01:51:47 437.475
M-CUBED/EXP-1 PRIME 29 Nov 01:51:48 01:55:24 72° 74° (ENE) 01:59:18 437.505
RS-15 29 Nov 02:05:20 02:15:35 36° 69° (ENE) 02:26:07 29.354- 29.394
ITAMSAT 1 29 Nov 02:12:40 02:16:47 24° 103° (ESE) 02:20:55 435.822/435.867
YUBILEINY 29 Nov 02:27:44 02:36:22 58° 93° (E) 02:44:55 435.215
ITUPSAT 1 29 Nov 02:34:45 02:39:19 44° 258° (WSW) 02:43:52 437.325
SWISSCUBE 29 Nov 02:44:55 02:49:02 29° 258° (WSW) 02:53:08 437.505
Oscar 19 29 Nov 02:51:40 02:56:11 31° 282° (WNW) 03:00:45 437.125/150
KKS-1 29 Nov 02:52:41 02:56:56 43° 78° (ENE) 03:01:09 437.445
JUGNU 29 Nov 02:59:41 03:02:57 15° 12° (NNE) 03:06:13 437.505
Gurwin Techsat 1B 29 Nov 03:01:27 03:06:32 48° 103° (ESE) 03:11:38 435.225
SO-50 29 Nov 03:14:42 03:17:45 18° 293° (WNW) 03:20:50 436.795
SRMSAT 29 Nov 03:16:52 03:18:12 11° 6° (N) 03:19:33 437.500
BEESAT 29 Nov 03:17:19 03:19:23 13° 257° (WSW) 03:21:27 436.000
STARS 29 Nov 03:41:53 03:46:15 60° 258° (WSW) 03:50:35 437.465
AO-7 29 Nov 03:44:29 03:50:34 23° 107° (ESE) 03:56:37 29.400- 29.500
ITAMSAT 1 29 Nov 03:52:18 03:56:00 20° 283° (WNW) 03:59:44 435.822/435.867
RS-15 29 Nov 04:16:42 04:27:34 44° 249° (WSW) 04:38:52 29.354- 29.394
O/OREOS (USA 219) 29 Nov 04:17:04 04:19:25 14° 105° (ESE) 04:21:45 437.305
HORYU 2 29 Nov 04:24:23 04:28:31 37° 282° (WNW) 04:32:42 437.375
YUBILEINY 29 Nov 04:27:35 04:32:44 17° 273° (W) 04:37:54 435.215
JUGNU 29 Nov 04:47:14 04:52:31 32° 19° (NNE) 04:57:50 437.505
SRMSAT 29 Nov 05:04:12 05:08:20 19° 15° (NNE) 05:12:27 437.500
PCSat 29 Nov 05:32:55 05:36:22 17° 70° (ENE) 05:39:48 145.827
AO-7 29 Nov 05:35:02 05:42:57 49° 286° (WNW) 05:50:54 29.400- 29.500
BEESAT 3 29 Nov 05:54:38 05:57:08 16° 68° (ENE) 05:59:36 437.485
O/OREOS (USA 219) 29 Nov 05:54:52 05:58:33 24° 284° (WNW) 06:02:12 437.305
MOZHAYETS 4 29 Nov 05:55:46 06:00:14 55° 258° (WSW) 06:04:43
CUTE-I 29 Nov 05:57:36 06:00:24 15° 103° (ESE) 06:03:13 437.470
PRISM 29 Nov 06:00:49 06:03:30 17° 78° (ENE) 06:06:12 437.425
BEESAT 2 29 Nov 06:11:53 06:15:14 24° 68° (ENE) 06:18:33 435.950
JAS-2 29 Nov 06:17:21 06:23:10 57° 283° (WNW) 06:28:27 435.910
JUGNU 29 Nov 06:35:40 06:41:41 87° 21° (NNE) 06:47:42 437.505
SRMSAT 29 Nov 06:52:13 06:57:54 44° 20° (NNE) 07:03:35 437.500
AIST 1 29 Nov 06:53:52 06:55:44 13° 86° (E) 06:57:36
Cubesat XI-IV 29 Nov 06:54:29 06:59:46 77° 103° (ESE) 07:05:05 437.490
AIST 2 29 Nov 07:00:03 07:04:04 45° 68° (ENE) 07:08:01 435.215
PCSat 29 Nov 07:14:48 07:19:30 31° 251° (WSW) 07:24:12 145.827
BEESAT 3 29 Nov 07:32:11 07:35:05 19° 248° (WSW) 07:37:58 437.485
CUTE-I 29 Nov 07:35:24 07:40:11 35° 283° (WNW) 07:44:59 437.470
PRISM 29 Nov 07:35:55 07:38:48 18° 258° (WSW) 07:41:40 437.425
CUBESAT XI-V 29 Nov 07:46:09 07:50:44 53° 258° (WSW) 07:55:19 437.345
BEESAT 2 29 Nov 07:51:37 07:53:15 12° 248° (WSW) 07:54:53 435.950
STRAND 1 29 Nov 07:56:21 08:01:18 47° 257° (WSW) 08:06:13 437.568
ISS 29 Nov 08:16:00 08:19:13 55° 55° (NE) 08:22:29 145.825
GONETS M04 29 Nov 08:18:21 08:27:01 66° 93° (E) 08:35:42
HO-68 29 Nov 08:23:24 08:27:33 16° 105° (ESE) 08:31:41 435.675
JUGNU 29 Nov 08:25:24 08:30:50 35° 199° (SSW) 08:36:15 437.505
AIST 1 29 Nov 08:29:46 08:33:07 22° 266° (W) 08:36:28
CANX-2 29 Nov 08:39:57 08:41:55 13° 102° (ESE) 08:43:52 2200.000
SRMSAT 29 Nov 08:41:12 08:47:09 67° 201° (SSW) 08:53:05 437.500
GOMX 1 29 Nov 09:01:55 09:04:51 17° 104° (ESE) 09:07:55 467.674
CUTE 1.7 + AOD 2 29 Nov 09:12:09 09:16:03 34° 102° (ESE) 09:19:59 437.475
SEEDS 29 Nov 09:40:30 09:44:46 78° 102° (ESE) 09:49:04 437.485
DELFI C3 29 Nov 09:40:31 09:43:01 16° 102° (ESE) 09:45:31 145.870
DOVE 4 29 Nov 09:41:04 09:45:18 41° 103° (ESE) 09:49:48 437.250
BRITE-PL 29 Nov 09:45:46 09:50:08 77° 281° (WNW) 09:54:53 437.365/2234.400
AAUSAT CUBESAT 2 29 Nov 09:50:32 09:54:45 74° 102° (ESE) 09:59:00 437.432
UKube-1 29 Nov 09:52:05 09:55:36 25° 102° (ESE) 09:59:08 .
CINEMA 3 29 Nov 09:52:37 09:56:38 31° 103° (ESE) 10:00:49 145.822/145.860
Oscar 11 29 Nov 10:00:16 10:04:21 40° 102° (ESE) 10:08:27 145.826/435.025
FUNcube-1 29 Nov 10:01:31 10:03:57 15° 103° (ESE) 10:06:24 145.935
HO-68 29 Nov 10:08:02 10:14:54 52° 285° (WNW) 10:21:47 435.675
COMPASS 1 29 Nov 10:08:19 10:12:25 49° 281° (WNW) 10:16:33 437.405
CANX-2 29 Nov 10:14:02 10:17:34 25° 282° (WNW) 10:21:08 2200.000
JUGNU 29 Nov 10:16:51 10:20:23 16° 193° (SSW) 10:23:54 437.505
VERMONT LUNAR 29 Nov 10:18:22 10:21:56 83° 135° (SE) 10:25:30 437.305
GONETS M04 29 Nov 10:19:29 10:23:27 14° 273° (W) 10:27:26
PHONESAT 2.4 29 Nov 10:21:11 10:24:43 46° 137° (SE) 10:28:14 2401.200-2431.200
HUMSAT D 29 Nov 10:21:36 10:23:49 14° 102° (ESE) 10:26:03 437.325/437.525
DX 1 29 Nov 10:30:14 10:34:33 85° 282° (WNW) 10:38:54 434.975-435.025
SRMSAT 29 Nov 10:31:39 10:36:32 26° 198° (SSW) 10:41:25 437.500
UWE-3 29 Nov 10:34:10 10:38:31 54° 102° (ESE) 10:43:00 435.000/436.395/437.385
POPSAT HIP 1 29 Nov 10:37:06 10:38:19 11° 78° (ENE) 10:39:31 437.405
GOMX 1 29 Nov 10:39:15 10:42:42 22° 280° (W) 10:46:20 467.674
CUBEBUG 2 29 Nov 10:40:54 10:45:22 83° 102° (ESE) 10:50:01 437.445
TIGRISAT 29 Nov 10:46:59 10:50:37 26° 79° (ENE) 10:54:11 435.000
ZACube-1 29 Nov 11:01:34 11:05:57 75° 282° (WNW) 11:10:29 437.345
UNISAT 6 29 Nov 11:02:03 11:06:13 45° 78° (ENE) 11:10:17 437.425
POLYITAN 1 29 Nov 11:10:01 11:13:58 36° 78° (ENE) 11:17:53 437.675
QB50P2 29 Nov 11:10:37 11:14:35 37° 78° (ENE) 11:18:30 145.880/145.840
DUCHIFAT 1 29 Nov 11:14:16 11:18:19 41° 78° (ENE) 11:22:18 145.980
VELOX 1 29 Nov 11:14:59 11:19:23 88° 102° (ESE) 11:23:49 145.980
DELFI C3 29 Nov 11:15:08 11:18:03 19° 282° (WNW) 11:20:59 145.870
50 SAT 29 Nov 11:20:41 11:24:48 85° 102° (ESE) 11:28:58 437.505
ESTCUBE 1 29 Nov 11:26:16 11:30:20 34° 102° (ESE) 11:34:25 437.505/2401.250
UKube-1 29 Nov 11:29:27 11:31:30 13° 282° (WNW) 11:33:34 .
ANTELSAT 29 Nov 11:31:03 11:35:22 65° 258° (WSW) 11:39:36 437.575/2403.000
CINEMA 3 29 Nov 11:31:52 11:33:38 12° 281° (W) 11:35:26 145.822/145.860
NANOSAT C BR1 29 Nov 11:34:00 11:38:18 84° 78° (ENE) 11:42:34 145.865
FUNcube-1 29 Nov 11:36:25 11:40:00 25° 281° (W) 11:43:40 145.935
BUGSAT 1 29 Nov 11:36:52 11:41:08 72° 78° (ENE) 11:45:23 437.445
CUBEBUG 1 29 Nov 11:43:32 11:47:46 58° 102° (ESE) 11:52:01 437.445
AISAT 29 Nov 11:43:47 11:47:46 34° 282° (WNW) 11:51:47 437.250
QB50P1 29 Nov 11:44:25 11:48:42 68° 258° (WSW) 11:52:55 145.935-145.965
HUMSAT D 29 Nov 11:55:58 11:59:21 23° 281° (WNW) 12:02:47 437.325/437.525
PHONESAT 2.4 29 Nov 12:02:07 12:03:24 11° 319° (NW) 12:04:40 2401.200-2431.200
POPSAT HIP 1 29 Nov 12:10:15 12:13:57 28° 258° (WSW) 12:17:38 437.405
CUSAT 1 29 Nov 12:13:46 12:15:47 14° 102° (ESE) 12:17:35 437.405
SRMSAT 29 Nov 12:23:52 12:26:25 13° 190° (S) 12:28:57 437.500
TIGRISAT 29 Nov 12:25:26 12:27:06 12° 257° (WSW) 12:28:45 435.000
TISAT 1 29 Nov 12:32:48 12:36:51 48° 102° (ESE) 12:40:55 437.305
SPROUT 29 Nov 12:53:23 12:57:39 85° 102° (ESE) 13:01:58 437.525
DANDE 29 Nov 12:53:31 12:57:31 58° 97° (E) 13:00:34 436.750
YUBILEINY 29 Nov 13:12:01 13:13:21 10° 87° (E) 13:14:40 435.215
ITUPSAT 1 29 Nov 13:21:03 13:24:21 19° 103° (ESE) 13:27:39 437.325
SWISSCUBE 29 Nov 13:29:48 13:33:51 28° 102° (ESE) 13:37:54 437.505
Oscar 19 29 Nov 13:46:12 13:50:59 40° 78° (ENE) 13:55:44 437.125/150
SO-50 29 Nov 13:46:16 13:50:49 39° 68° (ENE) 13:55:19 436.795
AUBIESAT-1 29 Nov 13:48:01 13:52:31 58° 105° (ESE) 13:56:41 437.475
RS-15 29 Nov 13:49:17 13:58:31 28° 113° (ESE) 14:07:22 29.354- 29.394
M-CUBED/EXP-1 PRIME 29 Nov 13:55:41 14:00:19 86° 105° (ESE) 14:04:37 437.505
JUGNU 29 Nov 13:58:46 14:00:41 12° 172° (S) 14:02:35 437.505
BEESAT 29 Nov 13:59:24 14:04:07 65° 102° (ESE) 14:08:50 436.000
MaSat-1 29 Nov 14:33:45 14:36:12 18° 285° (WNW) 14:38:31 437.345
ITAMSAT 1 29 Nov 14:46:45 14:51:57 67° 77° (ENE) 14:57:07 435.822/435.867
ITUPSAT 1 29 Nov 14:58:19 15:01:58 22° 282° (WNW) 15:05:38 437.325
YUBILEINY 29 Nov 15:01:05 15:09:44 77° 267° (W) 15:18:26 435.215
HORYU 2 29 Nov 15:03:06 15:05:30 14° 78° (ENE) 15:07:54 437.375
KKS-1 29 Nov 15:05:26 15:09:50 67° 102° (ESE) 15:14:17 437.445
SWISSCUBE 29 Nov 15:08:52 15:11:27 15° 283° (WNW) 15:14:02 437.505
Oscar 19 29 Nov 15:28:23 15:30:01 11° 257° (WSW) 15:31:39 437.125/150
SO-50 29 Nov 15:29:39 15:31:07 11° 248° (WSW) 15:32:35 436.795
Gurwin Techsat 1B 29 Nov 15:39:56 15:45:09 58° 258° (WSW) 15:50:21 435.225
JUGNU 29 Nov 15:46:02 15:50:30 22° 164° (SSE) 15:54:56 437.505
STARS 29 Nov 15:53:48 15:57:56 40° 282° (WNW) 16:02:05 437.465
RS-15 29 Nov 15:59:47 16:10:29 49° 290° (WNW) 16:20:52 29.354- 29.394
SRMSAT 29 Nov 16:04:05 16:07:03 14° 169° (S) 16:10:00 437.500
AO-7 29 Nov 16:09:30 16:16:56 37° 74° (ENE) 16:24:19 29.400- 29.500
O/OREOS (USA 219) 29 Nov 16:26:41 16:30:16 24° 76° (ENE) 16:33:53 437.305
HORYU 2 29 Nov 16:38:21 16:41:55 24° 258° (WSW) 16:45:29 437.375
MOZHAYETS 4 29 Nov 16:38:46 16:40:25 12° 102° (ESE) 16:42:03
JUGNU 29 Nov 17:34:03 17:39:47 55° 159° (SSE) 17:45:29 437.505
JAS-2 29 Nov 17:47:04 17:54:05 74° 77° (ENE) 18:01:45 435.910
BEESAT 3 29 Nov 17:50:41 17:53:23 18° 112° (ESE) 17:56:06 437.485
SRMSAT 29 Nov 17:51:44 17:56:50 29° 161° (SSE) 18:01:55 437.500
Cubesat XI-IV 29 Nov 17:56:47 17:59:43 15° 77° (ENE) 18:02:39 437.490
AO-7 29 Nov 18:02:31 18:09:21 29° 254° (WSW) 18:16:12 29.400- 29.500
PRISM 29 Nov 18:05:15 18:08:15 19° 102° (ESE) 18:11:16 437.425
O/OREOS (USA 219) 29 Nov 18:06:56 18:09:24 15° 255° (WSW) 18:11:53 437.305
PCSat 29 Nov 18:07:25 18:12:40 54° 109° (ESE) 18:17:55 145.827
BEESAT 2 29 Nov 18:08:30 18:11:57 28° 112° (ESE) 18:15:25 435.950
MOZHAYETS 4 29 Nov 18:13:15 18:17:22 32° 282° (WNW) 18:21:29
CUBESAT XI-V 29 Nov 18:30:13 18:32:19 13° 102° (ESE) 18:34:25 437.345
